Location: Isola Pescaroli
(45.0500°N, 10.1667°E)
Time: 01:40:12
(UTC+00:00)

SL-4 R/B - Pass Details

Date: 19 June 2021
Orbit: 428 x 662 km, 51.6° (Epoch: 29 July)

Event Time Altitude Azimuth Distance (km) Brightness Sun altitude
Exits shadow 20:28:56 12° 108° (ESE) 1,648 3.9 -11.1°
Drops below altitude 10° 20:29:38 10° 99° (E) 1,772 4.2 -11.2°
Sets 20:32:36 0° 74° (ENE) 2,608 5.2 -11.5°
